Location: Banios
(43.0451°N, 0.2335°E)
Time: 08:56:09
(UTC+00:00)

A-11 Canister half - Pass Details

Date: 21 May 2021
Orbit: 1527 x 1681 km, 47.3° (Epoch: 22 June)

Event Time Altitude Azimuth Distance (km) Brightness Sun altitude
Rises 08:15:59 0° 255° (WSW) 4,698 11.1 39.1°
Reaches altitude 10° 08:19:01 10° 257° (WSW) 3,730 10.7 39.6°
Maximum altitude 08:28:30 78° 344° (NNW) 1,617 9.8 41.3°
Drops below altitude 10° 08:38:21 10° 72° (ENE) 3,854 11.9 43.1°
Sets 08:41:32 0° 74° (ENE) 4,862 12.2 43.7°
